KB2UHF-8 Weather Reports


time (UTC)temp
C
wind
direction
speed
KPH
gust
KPH
rain 1hr
cm
rain 24hr
cm
rain mn
cm
humidity
%
barometer
mb
20260508171517 17 270 8.0 16.1 0.00 0.00 0.00 33 1008.3
20260508170538 17 225 11.3 19.3 0.00 0.00 0.00 29 1008.4
20260508165517 17 225 9.7 20.9 0.00 0.00 0.00 36 1008.7
20260508164516 17 225 6.4 20.9 0.00 0.00 0.00 32 1008.8
20260508163517 17 248 3.2 12.9 0.00 0.00 0.00 32 1008.9
20260508162518 16 203 6.4 14.5 0.00 0.00 0.00 32 1009.1
20260508161517 16 225 8.0 17.7 0.00 0.00 0.00 37 1009.2
20260508160517 16 248 8.0 14.5 0.00 0.00 0.00 34 1009.4
20260508155517 15 203 8.0 17.7 0.00 0.00 0.00 39 1009.4
20260508154517 15 225 8.0 16.1 0.00 0.00 0.00 37 1009.6
20260508153518 15 203 6.4 12.9 0.00 0.00 0.00 38 1009.8
20260508152517 15 225 6.4 16.1 0.00 0.00 0.00 39 1009.9
20260508151517 14 203 6.4 12.9 0.00 0.00 0.00 39 1009.9
20260508150517 13 225 8.0 16.1 0.00 0.00 0.00 39 1009.8
20260508145517 13 225 6.4 16.1 0.00 0.00 0.00 41 1009.9
20260508144517 12 225 6.4 14.5 0.00 0.00 0.00 45 1010.0
20260508143517 12 225 6.4 19.3 0.00 0.00 0.00 43 1009.8
20260508142516 11 225 8.0 19.3 0.00 0.00 0.00 46 1009.9
20260508141517 11 225 8.0 19.3 0.00 0.00 0.00 46 1009.9
20260508140516 10 225 8.0 17.7 0.00 0.00 0.00 49 1010.0
20260508135516 10 225 6.4 12.9 0.00 0.00 0.00 52 1010.0
20260508134516 9 225 6.4 11.3 0.00 0.00 0.00 51 1009.8
20260508133537 9 225 6.4 11.3 0.00 0.00 0.00 50 1009.9
20260508132518 8 225 3.2 9.7 0.00 0.00 0.00 53 1009.9
20260508131516 8 225 4.8 12.9 0.00 0.00 0.00 53 1010.0
20260508130516 7 203 4.8 14.5 0.00 0.00 0.00 53 1010.0
20260508125517 7 203 3.2 11.3 0.00 0.00 0.00 55 1010.2
20260508124537 7 225 3.2 11.3 0.00 0.00 0.00 56 1010.1
20260508123516 6 225 1.6 6.4 0.00 0.00 0.00 56 1009.9
20260508122516 6 203 3.2 9.7 0.00 0.00 0.00 56 1009.8
20260508121516 5 225 3.2 6.4 0.00 0.00 0.00 57 1009.9
20260508120516 5 180 1.6 6.4 0.00 0.00 0.00 59 1009.8
20260508115517 4 0.0 4.8 0.00 0.00 0.00 60 1009.8
20260508114516 4 0.0 4.8 0.00 0.00 0.00 61 1009.7
20260508113536 3 0.0 1.6 0.00 0.00 0.00 60 1009.7
20260508112516 3 0.0 0.0 0.00 0.00 0.00 59 1009.8
20260508111516 3 0.0 1.6 0.00 0.00 0.00 59 1009.7
20260508110516 3 0.0 4.8 0.00 0.00 0.00 59 1009.7
20260508105516 3 0.0 3.2 0.00 0.00 0.00 60 1009.7
20260508104536 3 180 1.6 8.0 0.00 0.00 0.00 59 1009.7
20260508103516 3 180 1.6 6.4 0.00 0.00 0.00 59 1009.7
20260508102516 3 203 1.6 6.4 0.00 0.00 0.00 58 1009.8
20260508101516 3 180 1.6 6.4 0.00 0.00 0.00 59 1009.8
20260508100516 2 180 1.6 4.8 0.00 0.00 0.00 59 1009.8
20260508095516 3 158 3.2 6.4 0.00 0.00 0.00 59 1009.9
20260508094536 3 158 3.2 6.4 0.00 0.00 0.00 58 1009.9
20260508093516 3 180 3.2 4.8 0.00 0.00 0.00 57 1010.0
20260508092516 3 180 1.6 3.2 0.00 0.00 0.00 56 1010.2
20260508091516 3 180 1.6 4.8 0.00 0.00 0.00 56 1010.2
20260508090518 3 203 1.6 4.8 0.00 0.00 0.00 55 1010.4
20260508085516 3 180 1.6 6.4 0.00 0.00 0.00 55 1010.5
20260508084516 3 203 1.6 6.4 0.00 0.00 0.00 55 1010.2
20260508083536 3 180 1.6 4.8 0.00 0.00 0.00 55 1010.3
20260508082516 3 0.0 3.2 0.00 0.00 0.00 55 1010.4
20260508081516 3 180 1.6 3.2 0.00 0.00 0.00 54 1010.4
20260508080519 3 180 3.2 6.4 0.00 0.00 0.00 54 1010.4
20260508075517 3 158 1.6 3.2 0.00 0.00 0.00 54 1010.4
20260508074516 3 0.0 4.8 0.00 0.00 0.00 53 1010.4
20260508073516 4 0.0 4.8 0.00 0.00 0.00 51 1010.5
20260508072516 5 180 3.2 6.4 0.00 0.00 0.00 50 1010.6
20260508071516 4 158 1.6 3.2 0.00 0.00 0.00 49 1010.5
20260508070516 4 0.0 0.0 0.00 0.00 0.00 51 1010.7
20260508065516 4 0.0 4.8 0.00 0.00 0.00 51 1010.8
20260508064516 4 158 1.6 4.8 0.00 0.00 0.00 51 1010.9
20260508063516 3 180 1.6 6.4 0.00 0.00 0.00 52 1010.8
20260508062516 3 0.0 3.2 0.00 0.00 0.00 57 1011.0
20260508061516 4 0.0 3.2 0.00 0.00 0.00 54 1011.2
20260508060536 5 0.0 1.6 0.00 0.00 0.00 51 1011.1
20260508055516 5 180 4.8 8.0 0.00 0.00 0.00 50 1011.3
20260508054516 6 135 3.2 4.8 0.00 0.00 0.00 48 1011.4
20260508053516 6 135 4.8 6.4 0.00 0.00 0.00 45 1011.2
20260508052516 6 158 3.2 4.8 0.00 0.00 0.00 46 1011.4
20260508051516 6 158 3.2 4.8 0.00 0.00 0.00 45 1011.5
20260508050536 6 135 3.2 4.8 0.00 0.00 0.00 45 1011.6
20260508045516 7 135 4.8 6.4 0.00 0.00 0.00 42 1011.5
20260508044517 6 135 4.8 6.4 0.00 0.00 0.00 44 1011.4
20260508043518 7 135 4.8 6.4 0.00 0.00 0.00 41 1011.5
20260508042516 7 113 3.2 4.8 0.00 0.00 0.00 40 1011.6
20260508041518 7 113 3.2 4.8 0.00 0.00 0.00 40 1011.7
20260508040516 7 113 3.2 4.8 0.00 0.00 0.00 39 1011.8
20260508035537 8 113 3.2 4.8 0.00 0.00 0.00 38 1011.8
20260508034516 8 45 1.6 3.2 0.00 0.00 0.00 37 1011.8
20260508033516 8 0 1.6 3.2 0.00 0.00 0.00 37 1011.7
20260508032516 8 0.0 0.0 0.00 0.00 0.00 37 1011.8
20260508031537 8 0.0 0.0 0.00 0.00 0.00 37 1011.6
20260508030518 8 0 1.6 4.8 0.00 0.00 0.00 37 1011.7
20260508025516 8 0 1.6 4.8 0.00 0.00 0.00 36 1011.6
20260508024518 9 338 3.2 3.2 0.00 0.00 0.00 36 1011.5
20260508023516 9 338 3.2 3.2 0.00 0.00 0.00 36 1011.4
20260508022536 9 338 3.2 3.2 0.00 0.00 0.00 36 1011.3
20260508021517 9 338 3.2 4.8 0.00 0.00 0.00 37 1011.2
20260508020516 9 338 4.8 8.0 0.00 0.00 0.00 37 1011.0
20260508015516 10 338 4.8 8.0 0.00 0.00 0.00 36 1010.8
20260508014518 10 338 4.8 4.8 0.00 0.00 0.00 36 1010.7
20260508013516 10 338 4.8 6.4 0.00 0.00 0.00 37 1010.5
20260508012516 10 338 6.4 8.0 0.00 0.00 0.00 37 1010.5
20260508011516 10 338 6.4 8.0 0.00 0.00 0.00 38 1010.4
20260508010516 10 338 6.4 8.0 0.00 0.00 0.00 37 1010.4
20260508005516 11 338 6.4 12.9 0.00 0.00 0.00 37 1010.2
20260508004516 11 338 8.0 16.1 0.00 0.00 0.00 35 1010.0
20260508003536 11 338 8.0 14.5 0.00 0.00 0.00 34 1009.8
20260508002516 12 338 6.4 14.5 0.00 0.00 0.00 34 1009.8
20260508001518 12 293 6.4 16.1 0.00 0.00 0.00 32 1009.8
20260508000516 12 315 8.0 16.1 0.00 0.00 0.00 32 1009.7
20260507235516 13 338 8.0 17.7 0.00 0.00 0.00 32 1009.6
20260507234516 13 315 11.3 17.7 0.00 0.00 0.00 30 1009.8
20260507233518 13 315 8.0 17.7 0.00 0.00 0.00 30 1009.9
20260507232558 13 293 11.3 24.1 0.00 0.00 0.00 28 1009.7
20260507231516 13 293 16.1 24.1 0.00 0.00 0.00 29 1009.7
20260507230516 13 293 9.7 22.5 0.00 0.00 0.00 29 1009.8
20260507225516 13 293 6.4 20.9 0.00 0.00 0.00 31 1009.8
20260507224516 14 293 9.7 24.1 0.00 0.00 0.00 30 1009.9
20260507223518 13 293 11.3 19.3 0.00 0.00 0.00 31 1009.9
20260507222516 13 270 9.7 19.3 0.00 0.00 0.00 32 1009.7
20260507221516 13 293 12.9 30.6 0.00 0.00 0.00 32 1009.7
20260507220537 13 270 14.5 25.7 0.00 0.00 0.00 30 1009.8
20260507215516 13 293 14.5 25.7 0.00 0.00 0.00 32 1009.6
20260507214516 13 270 16.1 32.2 0.00 0.00 0.00 32 1009.6
20260507213516 14 270 11.3 27.4 0.00 0.00 0.00 33 1009.6
20260507212516 13 270 14.5 29.0 0.00 0.00 0.00 35 1009.7
20260507211536 14 293 9.7 25.7 0.00 0.00 0.00 38 1009.6
20260507210517 13 315 14.5 25.7 0.00 0.00 0.00 35 1009.5
20260507205516 13 293 9.7 22.5 0.00 0.00 0.00 37 1009.6
20260507204516 13 270 11.3 20.9 0.00 0.00 0.00 36 1009.7
20260507203516 13 270 9.7 17.7 0.00 0.00 0.00 41 1009.8
20260507202517 13 315 12.9 24.1 0.00 0.00 0.00 42 1009.9
20260507201517 13 315 11.3 20.9 0.00 0.00 0.00 40 1010.1
20260507200516 13 315 9.7 22.5 0.00 0.00 0.00 40 1010.1
20260507195536 12 293 12.9 25.7 0.00 0.00 0.00 40 1010.3
20260507194516 13 270 12.9 32.2 0.00 0.00 0.00 37 1010.2
20260507193516 13 270 8.0 19.3 0.00 0.00 0.00 41 1010.3
20260507192516 12 338 11.3 24.1 0.00 0.00 0.00 42 1010.3
20260507191516 12 293 6.4 14.5 0.00 0.00 0.00 43 1010.4
20260507190516 12 315 12.9 29.0 0.00 0.00 0.00 45 1010.5
20260507185516 12 225 8.0 17.7 0.00 0.00 0.00 42 1010.6
20260507184516 12 270 8.0 19.3 0.00 0.00 0.00 42 1010.7
20260507183516 11 270 9.7 29.0 0.00 0.00 0.00 44 1010.8
20260507182516 12 270 11.3 22.5 0.00 0.00 0.00 45 1011.0
20260507181516 11 248 8.0 17.7 0.00 0.00 0.00 45 1010.9
20260507180515 11 293 6.4 14.5 0.00 0.00 0.00 46 1011.1
20260507175516 11 270 6.4 20.9 0.00 0.00 0.00 45 1011.2
20260507174515 11 338 4.8 14.5 0.00 0.00 0.00 47 1011.4
20260507173517 11 270 8.0 19.3 0.00 0.00 0.00 45 1011.5
20260507172535 11 225 9.7 17.7 0.00 0.00 0.00 46 1011.7